El Paso, TX

4:54 PM MDT on May 23, 2017 (GMT -0600)
El Paso International

Weather History for KELP - February, 2012

Change the Weather History Date:

Tuesday, February 14, 2012

  Actual Average Record
Temperature  
Mean Temperature 54 °F 50 °F  
Max Temperature 64 °F 63 °F 81 °F (1957)
Min Temperature 44 °F 37 °F 18 °F (1895)
Degree Days  
Heating Degree Days 11 15  
Month to date heating degree days 234 230  
Since 1 July heating degree days 1842 1915  
Cooling Degree Days 0 0  
Month to date cooling degree days 0 0  
Year to date cooling degree days 0 0  
Growing Degree Days 3 (Base 50)    
Moisture  
Dew Point 28 °F    
Average Humidity 37    
Maximum Humidity 53    
Minimum Humidity 21    
Precipitation  
Precipitation T in 0.02 in 0.50 in (1962)
Month to date precipitation 0.02 0.25  
Year to date precipitation 0.68 0.65  
Snow  
Snow 0.00 in - - ()
Month to date snowfall 0.0  
Since 1 July snowfall 3.2  
Snow Depth 0.00 in    
Sea Level Pressure  
Sea Level Pressure 29.78 in    
Wind  
Wind Speed 14 mph (WSW)    
Max Wind Speed 37 mph    
Max Gust Speed 47 mph    
Visibility 10 miles    
Events Rain    
T = Trace of Precipitation, MM = Missing Value Source: NWS Daily Summary

Daily Weather History Graph

Daily Weather History Graph

Search for Another Location

Airport or City:

Trip Planner

Search our weather history database for the weather conditions in past years. The results will help you decide how hot, cold, wet, or windy it might be!

Date:

Astronomy

Feb. 14, 2012 Rise Set
Actual Time 6:48 AM MST 5:50 PM MST
Civil Twilight 6:23 AM MST 6:15 PM MST
Nautical Twilight 5:55 AM MST 6:44 PM MST
Astronomical Twilight 5:26 AM MST 7:13 PM MST
Moon 12:29 AM MST (2/14) 11:07 AM MST (2/14)
Length of Visible Light 11h 52m
Length of Day
11h 02m
Waning Gibbous, 49% of the Moon is Illuminated
Feb 14
Waning Gibbous
Feb 21
New
Feb 29
First Quarter
Mar 8
Full
Mar 14
Last Quarter

Hourly Weather History & Observations

Time (MST) Temp. Windchill Dew Point Humidity Pressure Visibility Wind Dir Wind Speed Gust Speed Precip Events Conditions
12:51 AM 55.0 °F - 28.9 °F 37% 29.76 in 10.0 mi WSW 23.0 mph 33.4 mph N/A   Clear
1:51 AM 53.1 °F - 30.0 °F 41% 29.76 in 10.0 mi WSW 15.0 mph - N/A   Clear
2:51 AM 51.1 °F - 30.9 °F 46% 29.75 in 10.0 mi WSW 10.4 mph - N/A   Partly Cloudy
3:51 AM 48.0 °F - 30.9 °F 52% 29.75 in 10.0 mi South 4.6 mph - N/A   Scattered Clouds
4:51 AM 44.1 °F 40.1 °F 28.9 °F 55% 29.77 in 10.0 mi SE 6.9 mph - N/A   Mostly Cloudy
5:51 AM 46.9 °F - 28.9 °F 50% 29.77 in 10.0 mi South 8.1 mph - N/A   Mostly Cloudy
6:51 AM 50.0 °F - 32.0 °F 50% 29.77 in 10.0 mi SW 10.4 mph - N/A   Mostly Cloudy
7:51 AM 48.0 °F - 30.0 °F 50% 29.80 in 10.0 mi South 8.1 mph - N/A   Scattered Clouds
8:51 AM 53.1 °F - 32.0 °F 45% 29.81 in 10.0 mi SW 12.7 mph - N/A   Scattered Clouds
9:51 AM 57.0 °F - 32.0 °F 39% 29.80 in 10.0 mi SW 9.2 mph 18.4 mph N/A   Scattered Clouds
10:51 AM 59.0 °F - 30.9 °F 35% 29.78 in 10.0 mi West 11.5 mph - N/A   Mostly Cloudy
11:51 AM 59.0 °F - 28.4 °F 31% 29.87 in 10.0 mi SW 9.2 mph - N/A   Mostly Cloudy
12:51 PM 59.0 °F - 26.1 °F 28% 29.73 in 10.0 mi West 16.1 mph - N/A   Mostly Cloudy
1:51 PM 57.0 °F - 28.0 °F 33% 29.74 in 10.0 mi West 13.8 mph 25.3 mph 0.00 in Rain Light Rain
2:51 PM 60.1 °F - 28.0 °F 30% 29.70 in 10.0 mi SSW 8.1 mph - 0.00 in   Scattered Clouds
3:51 PM 61.0 °F - 24.1 °F 24% 29.68 in 10.0 mi WNW 6.9 mph - N/A   Mostly Cloudy
4:51 PM 62.1 °F - 23.0 °F 22% 29.69 in 7.0 mi WSW 24.2 mph 32.2 mph N/A   Partly Cloudy
5:51 PM 59.0 °F - 19.9 °F 22% 29.72 in 5.0 mi WSW 34.5 mph 42.6 mph N/A   Widespread Dust
6:51 PM 57.2 °F - 24.8 °F 29% 29.85 in 7.0 mi WSW 26.5 mph 40.3 mph N/A   Partly Cloudy
7:51 PM 50.0 °F - 28.9 °F 44% 29.81 in 10.0 mi NW 25.3 mph 40.3 mph N/A   Partly Cloudy
8:51 PM 45.0 °F 38.2 °F 27.0 °F 49% 29.86 in 10.0 mi WNW 15.0 mph 23.0 mph N/A   Clear
9:51 PM 45.0 °F 40.1 °F 25.0 °F 46% 29.86 in 10.0 mi West 9.2 mph - N/A   Clear
10:51 PM 44.1 °F 37.4 °F 21.9 °F 42% 29.86 in 10.0 mi WNW 13.8 mph - N/A   Clear
11:51 PM 44.1 °F 37.4 °F 19.9 °F 38% 29.87 in 10.0 mi WNW 13.8 mph 23.0 mph N/A   Clear